Location: Ch?enovice
(49.7164°N, 15.2160°E)
Time: 11:58:12
(UTC+00:00)

USA 267 - Pass Details

Date: 17 November 2025
Orbit: 1100 x 1108 km, 123.0° (Epoch: 21 November)

Event Time Altitude Azimuth Distance (km) Brightness Sun altitude
Rises 01:54:07 0° 61° (ENE) 3,923 7.0 -41.4°
Reaches altitude 10° 01:57:21 10° 77° (ENE) 2,960 6.2 -40.9°
Maximum altitude 02:02:05 21° 124° (SE) 2,253 5.1 -40.2°
Enters shadow 02:02:54 20° 134° (SE) 2,276 5.1 -40.1°
